Location: Asis
(14.1331°N, 120.9056°E)
Time: 08:49:03
(UTC+00:00)

Aurora 2 Rocket - Pass Details

Date: 15 January 2026
Orbit: 385 x 1537 km, 25.0° (Epoch: 8 February)

Event Time Altitude Azimuth Distance (km) Brightness Sun altitude
Rises 10:20:27 0° 306° (NW) 2,246 6.0 -8.4°
Reaches altitude 10° 10:23:21 10° 338° (NNW) 1,397 4.4 -9.0°
Maximum altitude 10:24:52 13° 7° (N) 1,260 3.9 -9.4°
Drops below altitude 10° 10:26:28 10° 37° (NE) 1,462 4.0 -9.7°
Enters shadow 10:26:29 10° 38° (NE) 1,466 4.0 -9.8°
